OpenBCM V2.0.3 (Linux)

Packet Radio Mailbox

IZ3LSV

[San Dona' di P. JN]

 Login: GUEST





  
CX2SA  > KEPS     24.06.26 07:10l 312 Lines 14849 Bytes #90 (0) @ AMSAT
BID : ORB26156.1
Read: GUEST
Subj: 2Line Orbital Elements 26156.AMSAT
Path: IZ3LSV<ED1ZAC<CX2SA
Sent: 260612/0024Z @:CX2SA.SAL.URY.SOAM #:600 [Salto] FBB7.00e $:ORB26156.1
From: CX2SA@CX2SA.SAL.URY.SOAM
To  : KEPS@AMSAT


QST de W1STR

AMSAT Orbital Elements for Amateur Satellites in TLE Format
>From Orbital Analysis Office
New England Sci-Tech STEM Education Center
Natick MA June 05, 2026
To all radio amateurs


These element sets describe the orbits of various satellites
in use by the amateur radio community. For details see:
www.amsat.org/keplerian-elements-formats/

A daily update of element sets is available at:
www.amsat.org/tle/daily-bulletin.txt
or without bulletin text:
www.amsat.org/tle/dailytle.txt


AO-07
1 07530U 74089B   26155.29739884 -.00000046  00000-0  32849-5 0  9994
2 07530 101.9902 168.4095 0012424 154.1272 275.7064 12.53697884358906
UO-11
1 14781U 84021B   26155.73688471  .00001488  00000-0  15713-3 0  9990
2 14781  97.8050 121.4515 0006538 216.3990 143.6784 14.90752353255276
AO-27
1 22825U 93061C   26155.13386559  .00000145  00000-0  72223-4 0  9997
2 22825  98.6882 222.5517 0009250 133.7828 226.4121 14.30938744705131
FO-29
1 24278U 96046B   26155.07670467 -.00000029  00000-0  38850-5 0  9995
2 24278  98.5251   5.7442 0350656 130.3680 232.8639 13.53273623471395
GO-32
1 25397U 98043D   26154.57772251  .00000069  00000-0  49972-4 0  9994
2 25397  99.0064 146.9934 0000319 213.6137 146.5021 14.24425649449397
ISS
1 25544U 98067A   26155.74133726  .00008168  00000-0  15298-3 0  9993
2 25544  51.6329   1.7083 0007031 132.5880 227.5702 15.49603626569822
NO-44
1 26931U 01043C   26154.60928777  .00000163  00000-0  91734-4 0  9991
2 26931  67.0512 279.3895 0006115 263.9670  96.0735 14.31950876288500
SO-50
1 27607U 02058C   26154.26409835  .00001126  00000-0  14986-3 0  9993
2 27607  64.5505 172.0623 0075520 265.0164  94.2317 14.83015002262395
CO-55
1 27844U 03031E   26154.54951729  .00000336  00000-0  16425-3 0  9995
2 27844  98.6736 163.2800 0008691 219.4250 140.6297 14.24327019189733
RS-22
1 27939U 03042A   26155.86215742  .00000987  00000-0  16033-3 0  9993
2 27939  98.3466 339.8730 0010362 313.4523 157.2500 14.73444993213738
CO-65
1 32785U 08021C   26155.71935219  .00005395  00000-0  34197-3 0  9991
2 32785  97.8272 136.8804 0010637  75.2124 285.0282 15.09326445983310
CO-66
1 32791U 08021J   26154.55442507  .00020146  00000-0  64842-3 0  9993
2 32791  97.7515 151.8069 0002991  42.0128 318.1342 15.32257900985206
RS-30
1 32953U 08025A   26155.86579933  .00000003  00000-0 -50526-4 0  9992
2 32953  82.5044   3.1063 0019385 341.4331  18.6039 12.43178729818160
SRMSAT
1 37841U 11058D   26155.28992140  .00000393  00000-0  69540-4 0  9995
2 37841  19.9702 137.5332 0011914  62.8275  26.7062 14.11572942755997
ZACUBE-1
1 39417U 13066B   26154.94254392  .00004510  00000-0  35148-3 0  9990
2 39417  97.8107 117.2078 0039904 294.5657  65.1411 15.01095965678748
Delfi-N3xt
1 39428U 13066N   26155.66193727  .00007558  00000-0  66179-3 0  9999
2 39428  97.8344  75.9859 0072712 247.8716 111.4775 14.94953338672752
GOMX-1
1 39430U 13066Q   26155.79272571  .00002314  00000-0  35095-3 0  9999
2 39430  97.6487 357.0374 0130016 116.8977 244.5586 14.69410700668096
LO-74
1 39440U 13066AA  26154.33051700  .00005093  00000-0  47123-3 0  9990
2 39440  97.8904 103.2522 0059453  73.9566 286.8190 14.93641817674922
AO-73
1 39444U 13066AE  26155.59353272  .00008112  00000-0  50553-3 0  9998
2 39444  97.8278 126.7780 0034647 245.3456 114.4162 15.09331350677763
DTUSAT-2
1 40030U 14033W   26155.22591472  .00007774  00000-0  42187-3 0  9999
2 40030  98.0864 152.1319 0006144 280.7902  79.2636 15.14842658650726
LILACSAT-2
1 40908U 15049K   26155.88698627  .00020496  00000-0  35383-3 0  9999
2 40908  97.4655 192.2640 0005377 304.9654  55.1092 15.51024001593846
Horyu-4
1 41340U 16012D   26152.43486084  .00260233  00000-0  10081-2 0  9993
2 41340  30.9850 193.7734 0002293 171.6706 188.3991 15.85409012568303
Lapan A3
1 41603U 16040E   26155.85491032  .00003928  00000-0  12525-3 0  9996
2 41603  97.1488 152.4070 0012007  65.0358 295.2131 15.33024305552921
CAS-2T
1 41847U 16066G   26155.63484800  .00001982  00000-0  28545-3 0  9992
2 41847  98.3817 231.5141 0342302 167.4688 193.5290 14.44651724502984
TechnoSat
1 42829U 17042E   26155.74901354  .00003302  00000-0  23673-3 0  9993
2 42829  97.4275 313.8827 0018977 132.9648 227.3174 15.04880149484831
AO-91
1 43017U 17073E   26155.17612321  .00011345  00000-0  49455-3 0  9999
2 43017  97.4712  22.6585 0151546  14.2510 346.2924 15.12484658463423
S-Net D
1 43186U 18014G   26155.66212135  .00006020  00000-0  31164-3 0  9997
2 43186  97.5370  60.5316 0009887  67.6528 292.5751 15.16549973456862
S-Net B
1 43187U 18014H   26155.67333097  .00006432  00000-0  33300-3 0  9991
2 43187  97.5376  60.5288 0010426  63.4642 296.7659 15.16520086456866
S-Net A
1 43188U 18014J   26155.66106520  .00005895  00000-0  30517-3 0  9999
2 43188  97.5386  60.7233 0010391  63.8079 296.4221 15.16557400456861
S-Net C
1 43189U 18014K   26155.67714317  .00006393  00000-0  33099-3 0  9992
2 43189  97.5402  60.8120 0011555  56.9894 303.2448 15.16511330455418
Ten-Koh
1 43677U 18084G   26155.07429095  .00003243  00000-0  24650-3 0  9995
2 43677  98.0775 346.8839 0010121 157.1972 202.9703 15.02883262414192
PO-101
1 43678U 18084H   26155.83239527  .00003226  00000-0  26166-3 0  9994
2 43678  98.1154 351.5061 0011792 211.4547 148.5971 15.00391997414360
QO-100
1 43700U 18090A   26155.74019446  .00000156  00000-0  00000+0 0  9997
2 43700   0.0177   0.9674 0001949 105.4242  79.0501  1.00272777 27552
MinXSS-2
1 43758U 18099A   26155.66838664  .00035252  00000-0  72088-3 0  9995
2 43758  97.4538 231.5943 0006038 309.7758  50.2959 15.46039247412196
AO-95
1 43770U 18099N   26154.64024448  .00013080  00000-0  50433-3 0  9998
2 43770  97.4392 214.9391 0009397  44.7441 315.4554 15.26406805411154
SNUSat 2
1 43782U 18099AA  26155.64240016  .00009596  00000-0  42708-3 0  9996
2 43782  97.4061 209.2201 0009512 348.7388  11.3634 15.21642813411127
SnugLite
1 43784U 18099AC  26155.10350941  .00013539  00000-0  51508-3 0  9998
2 43784  97.3871 209.5144 0002220  11.0960 349.0328 15.26879137411320
ITASat 1
1 43786U 18099AE  26155.63704000  .00008140  00000-0  39246-3 0  9994
2 43786  97.4030 207.4001 0013392  43.0227 317.2052 15.18890618411006
EAGLET 1
1 43790U 18099AJ  26155.35384480  .00005478  00000-0  31483-3 0  9990
2 43790  97.4233 205.3626 0011918  37.5450 322.6611 15.12838404410395
ESEO
1 43792U 18099AL  26155.67432023  .00001308  00000-0  98217-4 0  9991
2 43792  97.3961 193.5989 0012511  23.3849 336.7944 15.04201533409929
JO-97
1 43803U 18099AX  26155.63215683  .00018538  00000-0  57877-3 0  9990
2 43803  97.4135 218.4269 0004292 324.7580  35.3378 15.33239560411706
Suomi 100
1 43804U 18099AY  26155.63499492  .00013743  00000-0  50298-3 0  9996
2 43804  97.4190 216.0775 0008768 331.5428  28.5331 15.28124804411502
ISAT
1 43879U 18111D   26155.43138794  .00095893  00000-0  10486-2 0  9996
2 43879  97.5898  89.6933 0003290  47.8179 312.3358 15.62995150409176
UWE-4
1 43880U 18111E   26154.36119365  .00034900  00000-0  73362-3 0  9997
2 43880  97.5860  82.1246 0008243  33.3192 326.8573 15.45215882408648
Sparrow
1 43881U 18111F   26155.59610858  .00151593  00000-0  11997-2 0  9990
2 43881  97.6128  95.2751 0005059  99.0146 261.1689 15.70860609409396
Prox-1
1 44339U 19036A   26153.39522389  .00013271  00000-0  13054-2 0  9999
2 44339  23.9937 213.0381 0005645 216.2369 143.7749 14.90241213371266
Taurus 1
1 44530U 19059C   26155.80361750  .00006517  00000-0  10468-2 0  9999
2 44530  98.6410 319.8652 0008196 358.9323   1.1863 14.71959265356829
TO-108
1 44881U 19093C   26155.86108184  .00000338  00000-0  44129-4 0  9990
2 44881  97.7533 228.3934 0014691 123.5586 236.7035 14.86496517349589
RS-44
1 44909U 19096E   26155.02704110  .00000001  00000-0 -44333-4 0  9998
2 44909  82.5219 348.4520 0217591 174.8762 185.4640 12.79748573300667
SALSAT
1 46495U 20068K   26154.99736177  .00008555  00000-0  30076-3 0  9993
2 46495  97.8850 157.2614 0009364 359.9507   0.1729 15.29597840313346
CSS (TIANHE-1)
1 48274U 21035A   26155.68961053  .00024475  00000-0  29392-3 0  9993
2 48274  41.4693  38.0294 0009579 342.1781  17.8720 15.60257338291216
CUTE
1 49263U 21088D   26155.23260345  .00391134  58145-4  13985-2 0  9993
2 49263  97.4162 253.3120 0006992 259.2007 100.8478 15.88777469260493
TeikyoSat 4
1 49396U 21102B   26155.65820756  .00001857  00000-0  11967-3 0  9993
2 49396  97.3670 185.6288 0011415 344.5234  15.5644 15.09462831250832
Z-Sat
1 49399U 21102E   26155.80713624  .00003285  00000-0  16366-3 0  9993
2 49399  97.3329 191.5059 0014871 293.4135  66.5535 15.18166518251568
KOSEN 1
1 49402U 21102H   26155.68886447  .00007530  00000-0  28928-3 0  9992
2 49402  97.3189 198.0899 0012103 248.4486 111.5463 15.26654226252116
HO-113
1 50466U 21131B   26155.83678505  .00000562  00000-0  18718-3 0  9991
2 50466  98.4978 248.2934 0005055 125.0726 235.0938 14.41345974233334
SNUGLITE 2
1 52899U 22065F   26153.81818698  .00001149  00000-0  22678-3 0  9997
2 52899  98.2186 298.6759 0008699  72.9663 287.2492 14.64318814208891
UmKA 1 (RS40S)
1 57172U 23091G   26155.72365924  .00007244  00000-0  33222-3 0  9996
2 57172  97.5051 214.4699 0013525 157.1943 202.9895 15.20667787162117
CubeBel-2 (EU11S)
1 57175U 23091K   26155.22582525  .00014019  00000-0  50188-3 0  9990
2 57175  97.5053 218.3297 0010812 154.4980 205.6795 15.28829416162325
RS-38S
1 57189U 23091Z   26155.11681252  .00018692  00000-0  54136-3 0  9998
2 57189  97.5093 224.3441 0008752 116.2926 243.9218 15.35589021162685
SONATE-2
1 59112U 24043Q   26154.97364330  .00039146  00000-0  52779-3 0  9990
2 59112  97.5529 304.5700 0006326 241.9322 118.1294 15.57700323125834
